Retour au catalogue

STARLINK-5351

ActifCommunicationsVLEO
NORAD 56511·PAYLOAD·🇺🇸 United States

Lancé May 14, 2023 depuis Cape Canaveral Space Force Station

Loading…

Prochains Passages (prochaines 24 heures)

TLE

FraisSource: CelesTrak SupGP

Époque: Sep 15, 2026, 02:37 UTC

1 56511C 23065J   26258.10951389 -.00033605  00000+0 -12173-2 0  2585
2 56511  42.9994 222.5848 0001062 262.0878 355.6344 15.27590849    11

Suivez STARLINK-5351 en temps réel avec AllMySat

Download on the App Store